TimeCEST,TemperatureF,Dew PointF,Humidity,Sea Level PressureIn,VisibilityMPH,Wind Direction,Wind SpeedMPH,Gust SpeedMPH,PrecipitationIn,Events,Conditions,WindDirDegrees,DateUTC
12:00 AM,68.0,57.2,68,30.06,-9999.0,ESE,8.1,-,N/A,,Clear,120,2013-08-01 22:00:00
12:30 AM,68.0,57.2,68,30.06,-9999.0,SE,8.1,-,N/A,,Clear,130,2013-08-01 22:30:00
1:00 AM,66.2,57.2,73,30.06,-9999.0,ESE,6.9,-,N/A,,Clear,120,2013-08-01 23:00:00
1:30 AM,62.6,57.2,82,30.06,-9999.0,SE,5.8,-,N/A,,Clear,140,2013-08-01 23:30:00
2:00 AM,62,58,82,30.06,37,NW,2.2,,,,,310,2013-08-02 00:00:00
2:00 AM,62.6,57.2,82,30.06,-9999.0,Variable,2.3,-,N/A,,Clear,0,2013-08-02 00:00:00
2:30 AM,60.8,57.2,88,30.06,-9999.0,West,2.3,-,N/A,,Clear,270,2013-08-02 00:30:00
3:00 AM,62.6,57.2,82,30.06,-9999.0,NNE,3.5,-,N/A,,Clear,20,2013-08-02 01:00:00
3:30 AM,60.8,55.4,82,30.06,-9999.0,Variable,2.3,-,N/A,,Clear,0,2013-08-02 01:30:00
4:00 AM,60.8,57.2,88,30.06,-9999.0,Calm,Calm,-,N/A,,Clear,0,2013-08-02 02:00:00
4:30 AM,59.0,55.4,88,30.06,-9999.0,WNW,1.2,-,N/A,,Clear,290,2013-08-02 02:30:00
5:00 AM,60.8,57.2,88,30.06,-9999.0,NNW,2.3,-,N/A,,Clear,340,2013-08-02 03:00:00
5:30 AM,59.0,55.4,88,30.06,-9999.0,Variable,2.3,-,N/A,,Clear,0,2013-08-02 03:30:00
6:00 AM,59.0,55.4,88,30.06,-9999.0,Calm,Calm,-,N/A,,Clear,0,2013-08-02 04:00:00
6:30 AM,59.0,57.2,94,30.06,-9999.0,Calm,Calm,-,N/A,,Clear,0,2013-08-02 04:30:00
6:45 AM,62.6,59.0,88,30.06,-9999.0,Variable,2.3,-,N/A,,Clear,0,2013-08-02 04:45:00
7:00 AM,64.4,59.0,83,30.06,-9999.0,ESE,3.5,-,N/A,,Clear,110,2013-08-02 05:00:00
7:30 AM,68.0,60.8,78,30.09,-9999.0,SE,4.6,-,N/A,,Clear,130,2013-08-02 05:30:00
8:00 AM,69,61,68,30.05,19,SE,4.5,,,,,140,2013-08-02 06:00:00
8:00 AM,69.8,60.8,73,30.09,-9999.0,SSE,4.6,-,N/A,,Clear,150,2013-08-02 06:00:00
8:30 AM,71.6,60.8,69,30.09,-9999.0,East,3.5,-,N/A,,Clear,100,2013-08-02 06:30:00
9:00 AM,73.4,60.8,65,30.09,-9999.0,Variable,2.3,-,N/A,,Clear,0,2013-08-02 07:00:00
9:30 AM,75.2,60.8,61,30.09,-9999.0,Variable,2.3,-,N/A,,Clear,0,2013-08-02 07:30:00
10:00 AM,77.0,62.6,61,30.09,-9999.0,Variable,2.3,-,N/A,,Clear,0,2013-08-02 08:00:00
10:30 AM,78.8,62.6,57,30.09,-9999.0,Variable,3.5,-,N/A,,Clear,0,2013-08-02 08:30:00
11:00 AM,80.6,60.8,51,30.09,-9999.0,SE,4.6,-,N/A,,Clear,130,2013-08-02 09:00:00
11:30 AM,82.4,62.6,51,30.09,-9999.0,SSE,4.6,-,N/A,,Clear,150,2013-08-02 09:30:00
12:00 PM,84.2,60.8,45,30.06,-9999.0,SE,6.9,-,N/A,,Clear,130,2013-08-02 10:00:00
12:30 PM,84.2,59.0,42,30.06,-9999.0,SSE,8.1,-,N/A,,Clear,150,2013-08-02 10:30:00
1:00 PM,86.0,60.8,43,30.06,-9999.0,SE,6.9,-,N/A,,Clear,140,2013-08-02 11:00:00
1:30 PM,86.0,59.0,40,30.06,-9999.0,East,4.6,-,N/A,,Clear,90,2013-08-02 11:30:00
2:00 PM,87,57,26,29.98,31,SSE,6.7,,,,,150,2013-08-02 12:00:00
2:00 PM,87.8,57.2,35,30.04,-9999.0,SE,8.1,-,N/A,,Clear,130,2013-08-02 12:00:00
2:30 PM,87.8,59.0,38,30.04,-9999.0,SE,4.6,-,N/A,,Clear,140,2013-08-02 12:30:00
3:00 PM,87.8,59.0,38,30.04,-9999.0,ESE,5.8,-,N/A,,Clear,120,2013-08-02 13:00:00
3:30 PM,89.6,59.0,36,30.04,-9999.0,Variable,3.5,-,N/A,,Clear,0,2013-08-02 13:30:00
4:00 PM,89.6,57.2,33,30.01,-9999.0,Variable,4.6,-,N/A,,Clear,0,2013-08-02 14:00:00
4:30 PM,89.6,59.0,36,30.01,-9999.0,SE,6.9,-,N/A,,Clear,130,2013-08-02 14:30:00
5:00 PM,89.6,62.6,40,30.01,-9999.0,East,5.8,-,N/A,,Clear,90,2013-08-02 15:00:00
5:30 PM,89.6,60.8,38,30.01,-9999.0,ESE,8.1,-,N/A,,Clear,110,2013-08-02 15:30:00
6:00 PM,87.8,60.8,40,30.01,-9999.0,ESE,6.9,-,N/A,,Clear,110,2013-08-02 16:00:00
6:30 PM,87.8,60.8,40,30.01,-9999.0,East,6.9,-,N/A,,Clear,100,2013-08-02 16:30:00
7:00 PM,87.8,60.8,40,29.98,-9999.0,East,8.1,-,N/A,,Clear,90,2013-08-02 17:00:00
7:30 PM,86.0,62.6,45,29.98,-9999.0,East,8.1,-,N/A,,Clear,100,2013-08-02 17:30:00
8:00 PM,82,60,37,29.93,37,ESE,8.9,,,,,120,2013-08-02 18:00:00
8:00 PM,82.4,60.8,48,29.98,-9999.0,East,8.1,-,N/A,,Clear,100,2013-08-02 18:00:00
8:30 PM,80.6,59.0,48,29.98,-9999.0,East,8.1,-,N/A,,Clear,100,2013-08-02 18:30:00
9:00 PM,80.6,59.0,48,30.01,-9999.0,East,9.2,-,N/A,,Clear,100,2013-08-02 19:00:00
9:30 PM,78.8,57.2,47,30.01,-9999.0,ESE,8.1,-,N/A,,Clear,110,2013-08-02 19:30:00
10:00 PM,75.2,59.0,57,30.01,-9999.0,ESE,6.9,-,N/A,,Clear,110,2013-08-02 20:00:00
10:30 PM,75.2,57.2,53,30.01,-9999.0,ESE,6.9,-,N/A,,Clear,120,2013-08-02 20:30:00
11:00 PM,77.0,57.2,50,30.01,-9999.0,SE,8.1,-,N/A,,Clear,140,2013-08-02 21:00:00
11:30 PM,75.2,57.2,53,30.01,-9999.0,SE,6.9,-,N/A,,Clear,140,2013-08-02 21:30:00